TimeEST,TemperatureF,Dew PointF,Humidity,Sea Level PressureIn,VisibilityMPH,Wind Direction,Wind SpeedMPH,Gust SpeedMPH,PrecipitationIn,Events,Conditions,WindDirDegrees,DateUTC
12:53 AM,28.9,25.0,85,30.32,10.0,Calm,Calm,-,N/A,,Clear,0,2013-11-09 05:53:00
1:53 AM,28.0,25.0,88,30.32,10.0,Calm,Calm,-,N/A,,Clear,0,2013-11-09 06:53:00
2:53 AM,28.9,25.0,85,30.32,10.0,Calm,Calm,-,N/A,,Clear,0,2013-11-09 07:53:00
3:53 AM,28.0,25.0,88,30.30,10.0,Calm,Calm,-,N/A,,Clear,0,2013-11-09 08:53:00
4:53 AM,28.9,26.1,89,30.30,10.0,Calm,Calm,-,N/A,,Clear,0,2013-11-09 09:53:00
5:53 AM,30.0,26.1,85,30.30,10.0,Calm,Calm,-,N/A,,Clear,0,2013-11-09 10:53:00
6:53 AM,30.0,26.1,85,30.28,10.0,Calm,Calm,-,N/A,,Clear,0,2013-11-09 11:53:00
7:53 AM,30.0,27.0,88,30.29,10.0,Calm,Calm,-,N/A,,Clear,0,2013-11-09 12:53:00
8:53 AM,39.0,30.0,70,30.27,10.0,Calm,Calm,-,N/A,,Clear,0,2013-11-09 13:53:00
9:53 AM,46.0,27.0,47,30.25,10.0,Variable,5.8,-,N/A,,Clear,0,2013-11-09 14:53:00
10:53 AM,48.9,24.1,38,30.21,10.0,SW,6.9,-,N/A,,Clear,220,2013-11-09 15:53:00
11:53 AM,51.1,25.0,36,30.17,10.0,South,10.4,-,N/A,,Clear,180,2013-11-09 16:53:00
12:53 PM,54.0,21.9,29,30.12,10.0,SW,9.2,-,N/A,,Clear,230,2013-11-09 17:53:00
1:53 PM,57.0,21.0,25,30.08,10.0,SW,8.1,-,N/A,,Scattered Clouds,220,2013-11-09 18:53:00
2:53 PM,55.9,19.9,25,30.07,10.0,SW,6.9,-,N/A,,Overcast,220,2013-11-09 19:53:00
3:53 PM,57.0,17.1,21,30.06,10.0,SSW,9.2,16.1,N/A,,Clear,200,2013-11-09 20:53:00
4:53 PM,55.9,17.1,22,30.04,10.0,SSW,10.4,17.3,N/A,,Clear,210,2013-11-09 21:53:00
5:53 PM,54.0,18.0,24,30.04,10.0,SSW,5.8,-,N/A,,Clear,200,2013-11-09 22:53:00
6:53 PM,53.1,18.0,25,30.06,10.0,SSW,4.6,-,N/A,,Clear,200,2013-11-09 23:53:00
7:53 PM,53.1,18.0,25,30.05,10.0,SSW,6.9,-,N/A,,Clear,200,2013-11-10 00:53:00
8:53 PM,52.0,18.0,26,30.05,10.0,SSW,6.9,-,N/A,,Clear,210,2013-11-10 01:53:00
9:53 PM,52.0,19.0,27,30.07,10.0,SSW,6.9,-,N/A,,Clear,210,2013-11-10 02:53:00
10:53 PM,51.1,19.9,29,30.07,10.0,SSW,6.9,-,N/A,,Clear,200,2013-11-10 03:53:00
11:53 PM,51.1,21.0,31,30.06,10.0,SSW,9.2,-,N/A,,Scattered Clouds,210,2013-11-10 04:53:00